Location: Moonridge Observatory
(39.2268°N, 77.7914°W)
Time: 19:47:00
(UTC-05:00)

Amateur Radio Satellites - All Passes

Search period start: 16 January 2017 19:17
Search period end: 17 January 2017 19:17
Location: Moonridge Observatory, 39.2268°N, 77.7914°W

Satellite Date Start Highest point End Downlink Frequencies (MHz)
Time Altitude Azimuth
CUBEBUG 2 16 Jan 19:17:06 19:21:06 44° 73° (ENE) 19:25:04 437.445
GONETS M04 16 Jan 19:19:24 19:26:41 32° 84° (E) 19:34:01
STRAND 1 16 Jan 19:20:00 19:25:03 55° 100° (E) 19:30:05 437.568
CUTE-I 16 Jan 19:20:11 19:22:06 12° 270° (W) 19:24:01 437.470
CANX-2 16 Jan 19:20:13 19:24:21 54° 260° (W) 19:28:33 2200.000
HO-68 16 Jan 19:24:11 19:31:19 67° 257° (WSW) 19:38:31 435.675
NOAA 18 16 Jan 19:28:34 19:32:21 19° 267° (W) 19:36:09 137.9125
CINEMA 3 16 Jan 19:29:56 19:33:53 29° 263° (W) 19:37:41 145.822/145.860
Oscar 11 16 Jan 19:32:42 19:35:59 22° 68° (ENE) 19:39:17 145.826/435.025
SEEDS 16 Jan 19:40:33 19:44:41 56° 260° (W) 19:48:52 437.485
COMPASS 1 16 Jan 19:54:23 19:58:30 60° 259° (W) 20:02:41 437.405
UWE-3 16 Jan 19:54:35 19:58:45 76° 75° (ENE) 20:02:53 435.000/436.395/437.385
SRMSAT 16 Jan 19:55:17 19:56:53 11° 179° (S) 19:58:28 437.500
FUNcube-1 16 Jan 20:02:53 20:06:51 48° 74° (ENE) 20:10:50 145.935
AAUSAT CUBESAT 2 16 Jan 20:10:17 20:14:20 51° 260° (W) 20:18:26 437.432
AIST 2 16 Jan 20:19:41 20:23:38 50° 117° (ESE) 20:27:41 435.215
ZACube-1 16 Jan 20:23:13 20:27:22 85° 256° (WSW) 20:31:32 437.345
DELFI C3 16 Jan 20:30:56 20:34:26 30° 71° (ENE) 20:37:58 145.870
CUTE 1.7 + AOD 2 16 Jan 20:31:09 20:32:14 11° 270° (W) 20:33:19 437.475
CUBEBUG 2 16 Jan 20:55:48 20:57:56 14° 268° (W) 21:00:04 437.445
STRAND 1 16 Jan 21:00:22 21:03:46 18° 297° (WNW) 21:07:10 437.568
Cosmos 2499 16 Jan 21:07:23 21:15:30 46° 283° (WNW) 21:23:09 435.465 / 435.565
Oscar 11 16 Jan 21:08:06 21:11:55 31° 263° (W) 21:15:46 145.826/435.025
HUMSAT D 16 Jan 21:12:23 21:16:18 49° 74° (ENE) 21:20:18 437.325/437.525
GONETS M04 16 Jan 21:14:36 21:23:01 53° 283° (WNW) 21:31:33
ANTELSAT 16 Jan 21:16:53 21:19:18 14° 92° (E) 21:21:43 437.575/2403.000
BY70-1 16 Jan 21:27:35 21:28:54 12° 66° (ENE) 21:30:15 436.1900
PRISM 16 Jan 21:41:39 21:45:48 84° 285° (WNW) 21:49:53 437.425
FUNcube-1 16 Jan 21:41:44 21:43:22 12° 269° (W) 21:44:59 145.935
JAS-2 16 Jan 21:52:32 21:57:25 19° 91° (E) 22:02:30 435.910
AIST 2 16 Jan 21:59:38 22:02:24 17° 315° (NW) 22:05:13 435.215
DELFI C3 16 Jan 22:06:25 22:09:16 19° 266° (W) 22:12:08 145.870
RS-15 16 Jan 22:17:36 22:24:59 19° 97° (E) 22:32:29 29.354- 29.394
CUBEBUG 1 16 Jan 22:22:54 22:26:27 24° 68° (ENE) 22:30:00 437.445
UNISAT 6 16 Jan 22:22:58 22:27:23 81° 102° (ESE) 22:31:54 437.425
SPROUT 16 Jan 22:28:15 22:29:46 12° 64° (ENE) 22:31:17 437.525
AISAT 16 Jan 22:28:34 22:31:42 19° 66° (ENE) 22:34:48 437.250
ESTCUBE 1 16 Jan 22:31:11 22:35:33 51° 73° (ENE) 22:39:58 437.505/2401.250
50 SAT 16 Jan 22:34:14 22:35:23 11° 65° (ENE) 22:36:33 437.505
TIGRISAT 16 Jan 22:37:42 22:42:06 75° 283° (WNW) 22:46:34 435.000
HUMSAT D 16 Jan 22:50:41 22:52:13 12° 269° (W) 22:53:44 437.325/437.525
ANTELSAT 16 Jan 22:51:58 22:56:13 48° 287° (WNW) 23:00:32 437.575/2403.000
BY70-1 16 Jan 22:56:40 22:59:01 23° 265° (W) 23:01:33 436.1900
VELOX 1 16 Jan 23:01:01 23:05:09 39° 71° (ENE) 23:09:17 145.980
AO-85 16 Jan 23:01:40 23:04:52 23° 49° (NE) 23:08:01 145.980
QB50P1 16 Jan 23:07:28 23:10:44 22° 95° (E) 23:14:00 145.935-145.965
POLYITAN 1 16 Jan 23:10:08 23:13:33 23° 95° (E) 23:16:58 437.675
QB50P2 16 Jan 23:11:06 23:14:40 26° 96° (E) 23:18:12 145.880/145.840
POPSAT HIP 1 16 Jan 23:33:23 23:37:23 42° 99° (E) 23:41:23 437.405
ISS 16 Jan 23:35:09 23:38:23 71° 139° (SE) 23:41:38 145.825
JAS-2 16 Jan 23:35:49 23:42:51 79° 286° (WNW) 23:50:32 435.910
DX 1 16 Jan 23:46:50 23:51:08 61° 74° (ENE) 23:55:28 434.975-435.025
DUCHIFAT 1 16 Jan 23:49:26 23:53:33 56° 100° (E) 23:57:41 145.980
NANOSAT C BR1 16 Jan 23:52:42 23:56:53 69° 101° (E) 00:01:04 145.865
UKube-1 16 Jan 23:54:25 23:58:37 53° 73° (ENE) 00:02:51 .
CUBEBUG 1 16 Jan 23:58:44 00:02:34 29° 263° (W) 00:06:26 437.445
SPROUT 17 Jan 00:00:57 00:05:10 61° 260° (W) 00:09:22 437.525
AISAT 17 Jan 00:03:41 00:07:51 39° 262° (W) 00:12:02 437.250
50 SAT 17 Jan 00:04:48 00:08:11 42° 261° (W) 00:11:38 437.505
TISAT 1 17 Jan 00:09:05 00:12:19 22° 68° (ENE) 00:15:33 437.305
ESTCUBE 1 17 Jan 00:10:13 00:12:38 14° 268° (W) 00:15:04 437.505/2401.250
RS-15 17 Jan 00:23:37 00:35:24 82° 118° (ESE) 00:47:46 29.354- 29.394
PCSat 17 Jan 00:27:55 00:31:46 20° 106° (ESE) 00:35:38 145.827
VELOX 1 17 Jan 00:38:40 00:41:43 18° 266° (W) 00:44:48 145.980
BUGSAT 1 17 Jan 00:41:03 00:45:05 79° 103° (ESE) 00:49:07 437.445
AO-85 17 Jan 00:41:53 00:45:13 27° 246° (WSW) 00:48:33 145.980
QB50P1 17 Jan 00:42:51 00:46:29 29° 290° (WNW) 00:50:07 145.935-145.965
YUBILEINY 17 Jan 00:43:31 00:51:04 31° 70° (ENE) 00:58:33 435.215
POLYITAN 1 17 Jan 00:45:43 00:49:16 27° 291° (WNW) 00:52:49 437.675
Cosmos 2504 17 Jan 00:45:49 00:48:40 12° 60° (ENE) 00:51:29 435.465 / 435.565
QB50P2 17 Jan 00:46:56 00:50:21 24° 291° (WNW) 00:53:47 145.880/145.840
Gurwin Techsat 1B 17 Jan 01:02:13 01:05:37 17° 92° (E) 01:09:00 435.225
BEESAT 3 17 Jan 01:06:57 01:09:28 16° 45° (NE) 01:11:57 437.485
POPSAT HIP 1 17 Jan 01:10:16 01:12:48 16° 294° (WNW) 01:15:20 437.405
ISS 17 Jan 01:12:48 01:15:10 18° 337° (NNW) 01:17:33 145.825
Oscar 19 17 Jan 01:19:48 01:24:49 48° 100° (E) 01:29:46 437.125/150
JAS-2 17 Jan 01:23:13 01:26:58 15° 301° (WNW) 01:30:53 435.910
AIST 1 17 Jan 01:23:37 01:27:49 55° 80° (E) 01:31:59
ITUPSAT 1 17 Jan 01:25:48 01:29:59 31° 69° (ENE) 01:34:10 437.325
DX 1 17 Jan 01:26:25 01:27:41 11° 269° (W) 01:28:58 434.975-435.025
DUCHIFAT 1 17 Jan 01:27:05 01:28:44 12° 296° (WNW) 01:30:23 145.980
Cosmos 2491 17 Jan 01:30:02 01:37:17 31° 84° (E) 01:44:32 435.465 / 435.565
NANOSAT C BR1 17 Jan 01:31:32 01:32:01 10° 297° (WNW) 01:32:29 145.865
UKube-1 17 Jan 01:33:05 01:34:57 12° 268° (W) 01:36:49 .
BEESAT 2 17 Jan 01:42:37 01:45:16 17° 46° (NE) 01:47:54 435.950
TISAT 1 17 Jan 01:44:09 01:47:47 28° 263° (W) 01:51:26 437.305
AUBIESAT-1 17 Jan 01:59:15 02:01:07 13° 60° (ENE) 02:02:56 437.475
BEESAT 17 Jan 02:02:33 02:07:17 78° 74° (ENE) 02:12:03 436.000
SWISSCUBE 17 Jan 02:03:44 02:08:29 89° 78° (ENE) 02:13:16 437.505
PCSat 17 Jan 02:09:27 02:14:43 53° 302° (WNW) 02:20:02 145.827
MOZHAYETS 4 17 Jan 02:34:12 02:38:33 45° 72° (ENE) 02:42:55
Cosmos 2504 17 Jan 02:35:58 02:43:28 79° 82° (E) 02:50:38 435.465 / 435.565
RS-15 17 Jan 02:38:42 02:49:23 35° 323° (NW) 03:00:26 29.354- 29.394
YUBILEINY 17 Jan 02:39:44 02:48:17 57° 269° (W) 02:56:46 435.215
Gurwin Techsat 1B 17 Jan 02:40:42 02:45:54 56° 288° (WNW) 02:51:05 435.225
BEESAT 3 17 Jan 02:43:28 02:47:22 51° 243° (WSW) 02:51:14 437.485
CUSAT 1 17 Jan 02:44:57 02:48:20 20° 82° (E) 02:52:22 437.405
M-CUBED/EXP-1 PRIME 17 Jan 02:50:27 02:54:53 56° 70° (ENE) 02:59:03 437.505
PHONESAT 2.4 17 Jan 02:54:33 02:55:59 15° 151° (SSE) 02:57:25 2401.200-2431.200
Oscar 19 17 Jan 03:00:01 03:03:46 20° 296° (WNW) 03:07:28 437.125/150
ITUPSAT 1 17 Jan 03:03:51 03:07:47 25° 265° (W) 03:11:44 437.325
AIST 1 17 Jan 03:03:58 03:04:50 11° 276° (W) 03:05:42
CUBESAT XI-V 17 Jan 03:10:34 03:13:38 17° 65° (ENE) 03:16:42 437.345
STARS 17 Jan 03:12:42 03:15:38 18° 66° (ENE) 03:18:33 437.465
AO-7 17 Jan 03:13:04 03:20:52 41° 100° (E) 03:28:35 29.400- 29.500
BEESAT 2 17 Jan 03:19:24 03:23:19 49° 243° (WSW) 03:27:12 435.950
Cosmos 2491 17 Jan 03:25:09 03:33:36 54° 283° (WNW) 03:42:08 435.465 / 435.565
AUBIESAT-1 17 Jan 03:30:42 03:35:05 63° 253° (WSW) 03:39:14 437.475
ITAMSAT 1 17 Jan 03:32:50 03:38:04 89° 288° (WNW) 03:43:18 435.822/435.867
KKS-1 17 Jan 03:42:49 03:47:17 84° 75° (ENE) 03:51:46 437.445
BRITE-PL 17 Jan 04:06:02 04:09:00 16° 89° (E) 04:11:50 437.365/2234.400
MOZHAYETS 4 17 Jan 04:13:05 04:15:55 16° 268° (W) 04:18:46
CUSAT 1 17 Jan 04:25:09 04:29:34 43° 288° (WNW) 04:35:19 437.405
M-CUBED/EXP-1 PRIME 17 Jan 04:27:22 04:29:30 13° 262° (W) 04:31:38 437.505
PHONESAT 2.4 17 Jan 04:27:38 04:29:56 79° 163° (SSE) 04:32:15 2401.200-2431.200
ISS 17 Jan 04:28:27 04:30:19 14° 18° (NNE) 04:32:12 145.825
Cosmos 2504 17 Jan 04:31:38 04:35:44 16° 281° (WNW) 04:39:45 435.465 / 435.565
DANDE 17 Jan 04:37:07 04:40:25 61° 95° (E) 04:44:49 436.750
AIST 2 17 Jan 04:42:06 04:45:42 26° 50° (NE) 04:49:16 435.215
HORYU 2 17 Jan 04:46:04 04:49:00 17° 93° (E) 04:51:56 437.375
CUBESAT XI-V 17 Jan 04:46:05 04:50:36 47° 261° (W) 04:55:10 437.345
STARS 17 Jan 04:47:31 04:51:39 40° 261° (W) 04:55:48 437.465
RS-15 17 Jan 04:58:59 05:07:19 20° 358° (N) 05:15:40 29.354- 29.394
AO-7 17 Jan 05:05:49 05:13:35 44° 297° (WNW) 05:21:19 29.400- 29.500
ITAMSAT 1 17 Jan 05:15:11 05:16:44 11° 301° (WNW) 05:18:17 435.822/435.867
NOAA 15 17 Jan 05:20:58 05:24:15 16° 92° (E) 05:27:30 137.62
DOVE 4 17 Jan 05:29:27 05:31:49 15° 91° (E) 05:34:09 437.250
GONETS M04 17 Jan 05:31:46 05:36:04 14° 60° (ENE) 05:40:21
BRITE-PL 17 Jan 05:43:01 05:47:53 50° 288° (WNW) 05:52:21 437.365/2234.400
CUTE-I 17 Jan 05:54:36 05:59:24 33° 97° (E) 06:04:11 437.470
LilacSat-2 17 Jan 05:57:40 06:01:17 37° 98° (E) 06:04:53 437.200
PHONESAT 2.4 17 Jan 06:01:54 06:04:12 59° 3° (N) 06:06:30 2401.200-2431.200
ISS 17 Jan 06:04:05 06:07:19 64° 36° (NE) 06:10:32 145.825
GOMX 1 17 Jan 06:06:53 06:11:24 70° 285° (WNW) 06:15:39 467.674
NOAA 18 17 Jan 06:09:44 06:14:08 24° 95° (E) 06:18:30 137.9125
AIST 2 17 Jan 06:20:25 06:24:09 30° 246° (WSW) 06:27:52 435.215
HORYU 2 17 Jan 06:21:31 06:25:42 41° 289° (WNW) 06:29:52 437.375
STRAND 1 17 Jan 06:34:44 06:39:47 70° 74° (ENE) 06:44:51 437.568
Cubesat XI-IV 17 Jan 06:36:08 06:41:30 81° 103° (ESE) 06:46:50 437.490
CUTE 1.7 + AOD 2 17 Jan 06:40:13 06:41:25 11° 90° (E) 06:42:37 437.475
O/OREOS (USA 219) 17 Jan 06:50:50 06:55:13 56° 108° (ESE) 06:59:36 437.305
HO-68 17 Jan 06:53:51 06:59:38 26° 94° (E) 07:05:22 435.675
NOAA 15 17 Jan 06:59:09 07:04:23 59° 287° (WNW) 07:09:35 137.62
Cosmos 2499 17 Jan 06:59:51 07:06:57 59° 79° (E) 07:13:52 435.465 / 435.565
DOVE 4 17 Jan 07:05:47 07:09:45 40° 288° (WNW) 07:13:37 437.250
CANX-2 17 Jan 07:06:29 07:10:10 27° 96° (E) 07:13:48 2200.000
RS-15 17 Jan 07:14:52 07:25:33 32° 33° (NNE) 07:35:58 29.354- 29.394
CINEMA 3 17 Jan 07:24:36 07:28:46 68° 102° (ESE) 07:32:59 145.822/145.860
GONETS M04 17 Jan 07:25:41 07:34:32 74° 81° (E) 07:43:23
SEEDS 17 Jan 07:25:46 07:29:18 25° 95° (E) 07:32:48 437.485
SO-50 17 Jan 07:32:53 07:35:30 15° 109° (ESE) 07:38:07 436.795
LilacSat-2 17 Jan 07:33:03 07:35:14 15° 293° (WNW) 07:37:25 437.200
CUTE-I 17 Jan 07:34:45 07:39:19 30° 293° (WNW) 07:43:54 437.470
PHONESAT 2.4 17 Jan 07:36:07 07:38:24 51° 198° (SSW) 07:40:40 2401.200-2431.200
COMPASS 1 17 Jan 07:38:40 07:42:01 23° 95° (E) 07:45:20 437.405
ISS 17 Jan 07:42:02 07:43:25 12° 231° (SW) 07:44:46 145.825
UWE-3 17 Jan 07:45:53 07:48:41 16° 93° (E) 07:51:29 435.000/436.395/437.385
NOAA 18 17 Jan 07:49:48 07:54:54 41° 291° (WNW) 07:59:59 137.9125
AAUSAT CUBESAT 2 17 Jan 07:53:47 07:57:16 25° 95° (E) 08:00:45 437.432
FUNcube-1 17 Jan 07:54:15 07:55:03 10° 90° (E) 07:55:51 145.935
ZACube-1 17 Jan 08:12:56 08:16:08 20° 94° (E) 08:19:23 437.345
CUTE 1.7 + AOD 2 17 Jan 08:13:22 08:17:36 59° 285° (WNW) 08:21:49 437.475
ANTELSAT 17 Jan 08:16:18 08:17:33 11° 63° (ENE) 08:18:48 437.575/2403.000
STRAND 1 17 Jan 08:17:18 08:19:26 12° 270° (W) 08:21:34 437.568
Cubesat XI-IV 17 Jan 08:18:25 08:20:50 13° 300° (WNW) 08:23:16 437.490
PRISM 17 Jan 08:29:26 08:33:31 58° 74° (ENE) 08:37:38 437.425
O/OREOS (USA 219) 17 Jan 08:32:30 08:34:59 15° 305° (NW) 08:37:29 437.305
HO-68 17 Jan 08:40:41 08:47:41 58° 291° (WNW) 08:54:39 435.675
CANX-2 17 Jan 08:42:23 08:45:53 25° 291° (WNW) 08:49:22 2200.000
CUBEBUG 2 17 Jan 08:44:39 08:48:55 66° 284° (WNW) 08:53:17 437.445
Cosmos 2499 17 Jan 08:54:17 08:59:22 21° 278° (W) 09:04:23 435.465 / 435.565
Oscar 11 17 Jan 08:55:41 08:59:55 49° 99° (E) 09:04:09 145.826/435.025
SEEDS 17 Jan 09:01:21 09:04:54 26° 290° (WNW) 09:08:25 437.485
SO-50 17 Jan 09:10:49 09:15:30 60° 305° (NW) 09:20:07 436.795
COMPASS 1 17 Jan 09:13:56 09:17:31 28° 290° (WNW) 09:21:05 437.405
PCSat 17 Jan 09:16:12 09:19:32 16° 44° (NE) 09:22:51 145.827
UNISAT 6 17 Jan 09:20:41 09:24:53 60° 75° (ENE) 09:29:05 437.425
UWE-3 17 Jan 09:21:12 09:25:16 41° 287° (WNW) 09:29:25 435.000/436.395/437.385
GONETS M04 17 Jan 09:24:09 09:30:22 22° 280° (W) 09:36:37
FUNcube-1 17 Jan 09:27:20 09:31:38 65° 284° (WNW) 09:36:01 145.935
RS-15 17 Jan 09:27:34 09:40:00 88° 60° (ENE) 09:51:53 29.354- 29.394
AAUSAT CUBESAT 2 17 Jan 09:29:13 09:32:38 24° 291° (WNW) 09:36:01 437.432
TIGRISAT 17 Jan 09:35:09 09:39:25 82° 78° (ENE) 09:43:41 435.000
DELFI C3 17 Jan 09:43:17 09:47:14 57° 100° (E) 09:51:09 145.870
JAS-2 17 Jan 09:48:23 09:53:10 37° 68° (ENE) 09:58:17 435.910
ZACube-1 17 Jan 09:48:32 09:52:29 34° 288° (WNW) 09:56:29 437.345
ANTELSAT 17 Jan 09:49:29 09:53:43 63° 259° (W) 09:57:57 437.575/2403.000
QB50P1 17 Jan 09:59:44 10:02:08 15° 65° (ENE) 10:04:33 145.935-145.965
POLYITAN 1 17 Jan 10:02:28 10:05:04 16° 66° (ENE) 10:07:40 437.675
QB50P2 17 Jan 10:03:19 10:06:09 18° 67° (ENE) 10:08:58 145.880/145.840
PRISM 17 Jan 10:08:11 10:09:08 11° 269° (W) 10:10:05 437.425
POPSAT HIP 1 17 Jan 10:24:56 10:28:30 27° 70° (ENE) 10:32:04 437.405
ESTCUBE 1 17 Jan 10:26:55 10:28:29 12° 90° (E) 10:30:02 437.505/2401.250
HUMSAT D 17 Jan 10:31:44 10:36:00 72° 285° (WNW) 10:40:16 437.325/437.525
HO-68 17 Jan 10:32:49 10:33:53 10° 310° (NW) 10:34:58 435.675
Oscar 11 17 Jan 10:33:12 10:35:37 15° 295° (WNW) 10:38:01 145.826/435.025
DUCHIFAT 1 17 Jan 10:40:08 10:43:55 35° 71° (ENE) 10:47:44 145.980
NANOSAT C BR1 17 Jan 10:43:32 10:47:30 42° 72° (ENE) 10:51:27 145.865
PCSat 17 Jan 10:58:10 11:03:38 84° 241° (WSW) 11:09:02 145.827
UNISAT 6 17 Jan 11:01:12 11:01:58 10° 270° (W) 11:02:44 437.425
DELFI C3 17 Jan 11:20:26 11:21:31 11° 296° (WNW) 11:22:35 145.870
BUGSAT 1 17 Jan 11:29:26 11:33:21 45° 73° (ENE) 11:37:13 437.445
BY70-1 17 Jan 11:32:24 11:35:40 42° 286° (WNW) 11:38:46 436.1900
50 SAT 17 Jan 11:32:38 11:34:26 13° 93° (E) 11:36:13 437.505
QB50P1 17 Jan 11:33:31 11:37:31 44° 261° (W) 11:41:33 145.935-145.965
JAS-2 17 Jan 11:34:10 11:38:24 25° 267° (W) 11:42:55 435.910
POLYITAN 1 17 Jan 11:36:34 11:40:31 40° 261° (W) 11:44:29 437.675
QB50P2 17 Jan 11:37:46 11:41:39 36° 262° (W) 11:45:34 145.880/145.840
DX 1 17 Jan 11:38:33 11:39:44 11° 91° (E) 11:40:56 434.975-435.025
RS-15 17 Jan 11:42:05 11:50:48 24° 261° (W) 11:59:19 29.354- 29.394
Cosmos 2491 17 Jan 11:42:36 11:46:40 14° 60° (ENE) 11:50:42 435.465 / 435.565
CUBEBUG 1 17 Jan 11:47:38 11:51:53 53° 100° (E) 11:56:05 437.445
SPROUT 17 Jan 11:48:12 11:51:37 23° 95° (E) 11:55:02 437.525
AISAT 17 Jan 11:54:33 11:58:41 40° 99° (E) 12:02:48 437.250
POPSAT HIP 1 17 Jan 12:00:55 12:04:14 22° 265° (W) 12:07:33 437.405
ESTCUBE 1 17 Jan 12:01:10 12:05:40 62° 286° (WNW) 12:10:07 437.505/2401.250
DUCHIFAT 1 17 Jan 12:16:53 12:19:41 17° 266° (W) 12:22:30 145.980
NANOSAT C BR1 17 Jan 12:21:04 12:23:24 15° 268° (W) 12:25:44 145.865
Gurwin Techsat 1B 17 Jan 12:22:00 12:26:17 26° 66° (ENE) 12:30:36 435.225
AO-7 17 Jan 12:25:43 12:27:46 11° 44° (NE) 12:29:51 29.400- 29.500
VELOX 1 17 Jan 12:27:58 12:32:24 88° 285° (WNW) 12:36:47 145.980
Oscar 19 17 Jan 12:35:22 12:40:29 63° 73° (ENE) 12:45:38 437.125/150
50 SAT 17 Jan 13:04:31 13:07:45 32° 288° (WNW) 13:10:55 437.505
BUGSAT 1 17 Jan 13:07:01 13:08:55 13° 268° (W) 13:10:49 437.445
DX 1 17 Jan 13:12:01 13:16:18 60° 286° (WNW) 13:20:32 434.975-435.025
ITAMSAT 1 17 Jan 13:13:04 13:16:01 16° 62° (ENE) 13:19:00 435.822/435.867
CUSAT 1 17 Jan 13:16:53 13:23:02 24° 66° (ENE) 13:29:01 437.405
AO-85 17 Jan 13:17:27 13:18:44 11° 108° (ESE) 13:20:00 145.980
UKube-1 17 Jan 13:18:11 13:22:29 71° 285° (WNW) 13:26:46 .
SPROUT 17 Jan 13:23:54 13:27:29 27° 290° (WNW) 13:31:05 437.525
Cosmos 2504 17 Jan 13:25:01 13:27:46 12° 76° (ENE) 13:30:29 435.465 / 435.565
CUBEBUG 1 17 Jan 13:25:33 13:27:40 14° 296° (WNW) 13:29:48 437.445
TISAT 1 17 Jan 13:28:18 13:32:17 43° 99° (E) 13:36:15 437.305
AISAT 17 Jan 13:31:52 13:34:50 18° 294° (WNW) 13:37:46 437.250
DANDE 17 Jan 13:33:54 13:36:05 11° 61° (ENE) 13:38:19 436.750
Cosmos 2491 17 Jan 13:36:22 13:45:10 73° 81° (E) 13:53:57 435.465 / 435.565
YUBILEINY 17 Jan 13:43:13 13:50:56 36° 85° (E) 13:58:41 435.215
AIST 1 17 Jan 13:51:39 13:55:37 35° 91° (E) 13:59:36
Gurwin Techsat 1B 17 Jan 14:01:04 14:06:00 39° 262° (W) 14:10:58 435.225
BEESAT 17 Jan 14:04:26 14:08:03 21° 94° (E) 14:11:40 436.000
SWISSCUBE 17 Jan 14:05:28 14:09:23 24° 95° (E) 14:13:16 437.505
AO-7 17 Jan 14:10:37 14:18:36 52° 65° (ENE) 14:26:37 29.400- 29.500
Oscar 19 17 Jan 14:17:23 14:20:12 15° 269° (W) 14:23:03 437.125/150
MOZHAYETS 4 17 Jan 14:32:21 14:33:57 12° 90° (E) 14:35:32
ITAMSAT 1 17 Jan 14:49:48 14:54:55 65° 257° (WSW) 15:00:05 435.822/435.867
AO-85 17 Jan 14:53:52 14:58:40 77° 303° (WNW) 15:03:06 145.980
CUSAT 1 17 Jan 14:57:43 15:05:41 76° 264° (W) 15:13:13 437.405
ITUPSAT 1 17 Jan 15:04:11 15:09:01 87° 99° (E) 15:13:50 437.325
TISAT 1 17 Jan 15:05:07 15:07:32 15° 295° (WNW) 15:09:57 437.305
Cosmos 2504 17 Jan 15:10:59 15:19:43 71° 93° (E) 15:28:00 435.465 / 435.565
DANDE 17 Jan 15:12:32 15:20:01 59° 78° (ENE) 15:28:15 436.750
BRITE-PL 17 Jan 15:14:25 15:18:35 21° 65° (ENE) 15:22:44 437.365/2234.400
AIST 1 17 Jan 15:30:15 15:33:18 18° 287° (WNW) 15:36:22
Cosmos 2491 17 Jan 15:34:48 15:41:03 22° 280° (W) 15:47:20 435.465 / 435.565
KKS-1 17 Jan 15:35:53 15:38:47 17° 93° (E) 15:41:40 437.445
GOMX 1 17 Jan 15:37:44 15:40:22 14° 63° (ENE) 15:42:59 467.674
YUBILEINY 17 Jan 15:39:01 15:47:25 48° 284° (WNW) 15:55:55 435.215
BEESAT 17 Jan 15:41:30 15:45:55 38° 290° (WNW) 15:50:20 436.000
SWISSCUBE 17 Jan 15:42:53 15:47:10 33° 291° (WNW) 15:51:27 437.505
HORYU 2 17 Jan 15:43:44 15:46:13 15° 64° (ENE) 15:48:42 437.375
AO-7 17 Jan 16:04:09 16:11:32 34° 262° (W) 16:18:59 29.400- 29.500
SO-50 17 Jan 16:04:33 16:06:33 13° 40° (NE) 16:08:31 436.795
M-CUBED/EXP-1 PRIME 17 Jan 16:05:12 16:08:25 39° 104° (ESE) 16:11:30 437.505
MOZHAYETS 4 17 Jan 16:06:54 16:11:30 65° 286° (WNW) 16:16:06
Cubesat XI-IV 17 Jan 16:20:00 16:22:59 15° 61° (ENE) 16:25:59 437.490
JUGNU 17 Jan 16:31:18 16:32:30 11° 176° (S) 16:33:43 437.505
BEESAT 3 17 Jan 16:32:33 16:35:59 30° 114° (ESE) 16:39:27 437.485
DOVE 4 17 Jan 16:33:17 16:36:36 18° 66° (ENE) 16:39:50 437.250
STARS 17 Jan 16:37:40 16:41:43 36° 98° (E) 16:45:44 437.465
AO-85 17 Jan 16:38:33 16:39:43 11° 319° (NW) 16:40:51 145.980
LilacSat-2 17 Jan 16:39:33 16:41:57 16° 68° (ENE) 16:44:22 437.200
NOAA 15 17 Jan 16:39:39 16:43:53 25° 65° (ENE) 16:48:07 137.62
CUSAT 1 17 Jan 16:42:36 16:46:16 14° 281° (WNW) 16:49:53 437.405
CUBESAT XI-V 17 Jan 16:43:32 16:48:03 45° 99° (E) 16:52:31 437.345
AUBIESAT-1 17 Jan 16:44:43 16:48:05 69° 289° (WNW) 16:51:21 437.475
ITUPSAT 1 17 Jan 16:45:17 16:46:06 10° 300° (WNW) 16:46:55 437.325
BRITE-PL 17 Jan 16:51:02 16:56:34 56° 261° (W) 17:02:10 437.365/2234.400
DANDE 17 Jan 16:55:57 17:02:24 30° 272° (W) 17:09:19 436.750
O/OREOS (USA 219) 17 Jan 17:01:42 17:06:13 89° 276° (W) 17:10:44 437.305
Cosmos 2504 17 Jan 17:07:01 17:13:43 24° 291° (WNW) 17:20:12 435.465 / 435.565
BEESAT 2 17 Jan 17:09:48 17:13:21 33° 115° (ESE) 17:16:58 435.950
KKS-1 17 Jan 17:11:22 17:15:30 40° 289° (WNW) 17:19:38 437.445
GOMX 1 17 Jan 17:12:19 17:17:48 79° 258° (WSW) 17:23:07 467.674
CUTE-I 17 Jan 17:15:17 17:20:22 49° 71° (ENE) 17:25:28 437.470
HORYU 2 17 Jan 17:18:03 17:22:20 50° 260° (W) 17:26:38 437.375
HO-68 17 Jan 17:22:59 17:27:36 19° 56° (NE) 17:32:13 435.675
NOAA 18 17 Jan 17:34:40 17:39:50 43° 69° (ENE) 17:45:00 137.9125
M-CUBED/EXP-1 PRIME 17 Jan 17:41:39 17:42:30 11° 301° (WNW) 17:43:22 437.505
SO-50 17 Jan 17:43:10 17:47:41 88° 57° (ENE) 17:52:09 436.795
Cubesat XI-IV 17 Jan 17:57:09 18:02:26 69° 258° (WSW) 18:07:46 437.490
CANX-2 17 Jan 17:58:54 18:01:42 17° 66° (ENE) 18:04:32 2200.000
DOVE 4 17 Jan 18:08:56 18:13:55 52° 260° (W) 18:18:40 437.250
BEESAT 3 17 Jan 18:10:30 18:13:36 22° 311° (NW) 18:16:45 437.485
LilacSat-2 17 Jan 18:12:37 18:15:58 31° 263° (W) 18:19:22 437.200
STARS 17 Jan 18:14:40 18:17:47 19° 294° (WNW) 18:20:54 437.465
SEEDS 17 Jan 18:17:13 18:19:47 16° 66° (ENE) 18:22:21 437.485
NOAA 15 17 Jan 18:18:27 18:23:24 40° 262° (W) 18:28:24 137.62
CUBESAT XI-V 17 Jan 18:21:53 18:25:03 18° 295° (WNW) 18:28:11 437.345
CINEMA 3 17 Jan 18:24:52 18:29:16 54° 75° (ENE) 18:33:30 145.822/145.860
COMPASS 1 17 Jan 18:29:21 18:31:34 14° 65° (ENE) 18:33:48 437.405
GONETS M04 17 Jan 18:33:29 18:38:08 16° 77° (ENE) 18:42:48
UWE-3 17 Jan 18:43:39 18:44:59 11° 64° (ENE) 18:46:19 435.000/436.395/437.385
AAUSAT CUBESAT 2 17 Jan 18:43:43 18:46:13 16° 66° (ENE) 18:48:42 437.432
STRAND 1 17 Jan 18:46:48 18:51:03 26° 95° (E) 18:55:18 437.568
BEESAT 2 17 Jan 18:48:09 18:51:13 21° 312° (NW) 18:54:19 435.950
CUTE-I 17 Jan 18:56:53 19:00:39 19° 267° (W) 19:04:25 437.470
CUTE 1.7 + AOD 2 17 Jan 19:04:22 19:08:37 82° 75° (ENE) 19:12:53 437.475
ZACube-1 17 Jan 19:09:06 19:11:05 13° 65° (ENE) 19:13:02 437.345
